Change the Weather History Date:

Wednesday, February 15, 2012

  Actual Average Record
Temperature  
Mean Temperature 47 °F 42 °F  
Max Temperature 58 °F 52 °F 76 °F (1989)
Min Temperature 36 °F 32 °F 7 °F (1960)
Degree Days  
Heating Degree Days 18 23  
Month to date heating degree days 336 364  
Since 1 July heating degree days 2263 2626  
Cooling Degree Days 0 0  
Month to date cooling degree days 0 0  
Year to date cooling degree days 0 0  
Moisture  
Dew Point 40 °F    
Average Humidity 79    
Maximum Humidity 100    
Minimum Humidity 57    
Precipitation  
Precipitation T in 0.15 in 1.80 in (1909)
Month to date precipitation 1.38 2.27  
Year to date precipitation 7.05 6.59  
Snow  
Snow 0.00 in 0.10 in - ()
Month to date snowfall T 1.0  
Since 1 July snowfall 0.1 4.5  
Snow Depth 0.00 in    
Sea Level Pressure  
Sea Level Pressure 30.18 in    
Wind  
Wind Speed 3 mph (NNE)    
Max Wind Speed 9 mph    
Max Gust Speed 13 mph    
Visibility 6 miles    
Events Fog    
T = Trace of Precipitation, MM = Missing Value Source: NWS Daily Summary

Daily Weather History Graph

Daily Weather History Graph

Search for Another Location

Airport or City:

Trip Planner

Search our weather history database for the weather conditions in past years. The results will help you decide how hot, cold, wet, or windy it might be!

Date:

Astronomy

Feb. 15, 2012 Rise Set
Actual Time 7:23 AM EST 6:17 PM EST
Civil Twilight 6:57 AM EST 6:43 PM EST
Nautical Twilight 6:27 AM EST 7:13 PM EST
Astronomical Twilight 5:57 AM EST 7:43 PM EST
Moon 2:09 AM EST (2/15) 12:17 PM EST (2/15)
Length of Visible Light 11h 46m
Length of Day
10h 53m
Last Quarter, 39% of the Moon is Illuminated
Feb 15
Last Quarter
Feb 21
New
Feb 29
First Quarter
Mar 8
Full
Mar 14
Last Quarter

Hourly Weather History & Observations

Time (EST) Temp. Windchill Dew Point Humidity Pressure Visibility Wind Dir Wind Speed Gust Speed Precip Events Conditions
12:53 AM 43.0 °F - 39.9 °F 89% 30.16 in 6.0 mi Calm Calm - N/A   Overcast
1:53 AM 43.0 °F - 39.9 °F 89% 30.16 in 6.0 mi Calm Calm - N/A   Overcast
2:53 AM 42.1 °F - 39.9 °F 92% 30.17 in 4.0 mi Calm Calm - N/A   Overcast
3:53 AM 42.1 °F - 39.9 °F 92% 30.17 in 5.0 mi Calm Calm - N/A   Overcast
4:53 AM 39.9 °F - 39.0 °F 97% 30.17 in 5.0 mi Calm Calm - N/A   Mostly Cloudy
5:18 AM 39.2 °F 37.0 °F 39.2 °F 100% 30.16 in 2.5 mi NE 3.5 mph - N/A   Scattered Clouds
5:38 AM 39.2 °F 37.0 °F 39.2 °F 100% 30.17 in 1.2 mi North 3.5 mph - N/A   Partly Cloudy
5:40 AM 39.2 °F - 39.2 °F 100% 30.17 in 1.0 mi Calm Calm - N/A   Mostly Cloudy
5:48 AM 39.2 °F 37.0 °F 37.4 °F 93% 30.17 in 0.5 mi NNE 3.5 mph - N/A Fog Fog
5:53 AM 39.9 °F 35.8 °F 37.9 °F 93% 30.18 in 0.5 mi North 5.8 mph - N/A Fog Fog
6:00 AM 37.4 °F 32.8 °F 37.4 °F 100% 30.17 in 1.0 mi NE 5.8 mph - N/A   Mostly Cloudy
6:10 AM 37.4 °F 34.9 °F 35.6 °F 93% 30.17 in 0.8 mi ENE 3.5 mph - N/A   Mostly Cloudy
6:43 AM 39.2 °F 37.0 °F 37.4 °F 93% 30.18 in 1.0 mi NE 3.5 mph - N/A   Overcast
6:53 AM 39.0 °F 36.8 °F 37.9 °F 96% 30.19 in 1.2 mi ENE 3.5 mph - N/A   Overcast
7:53 AM 39.9 °F 36.7 °F 39.0 °F 97% 30.20 in 1.2 mi NE 4.6 mph - N/A   Overcast
8:41 AM 42.8 °F 39.3 °F 39.2 °F 87% 30.22 in 1.5 mi NNE 5.8 mph - N/A   Overcast
8:53 AM 42.1 °F 37.7 °F 39.9 °F 92% 30.25 in 2.0 mi NNE 6.9 mph - N/A   Overcast
9:17 AM 42.8 °F 38.6 °F 39.2 °F 87% 30.23 in 2.0 mi NE 6.9 mph - N/A   Overcast
9:40 AM 42.8 °F 38.6 °F 39.2 °F 87% 30.26 in 3.0 mi North 6.9 mph - N/A   Overcast
9:53 AM 45.0 °F 41.2 °F 41.0 °F 86% 30.25 in 3.0 mi NE 6.9 mph - N/A   Overcast
10:53 AM 46.0 °F 43.9 °F 39.9 °F 79% 30.26 in 10.0 mi Variable 4.6 mph - N/A   Overcast
11:42 AM 48.2 °F - 39.2 °F 71% 30.24 in 10.0 mi ENE 5.8 mph - N/A   Mostly Cloudy
11:53 AM 48.0 °F - 39.9 °F 74% 30.24 in 10.0 mi Calm Calm - N/A   Mostly Cloudy
12:03 PM 48.2 °F - 41.0 °F 76% 30.23 in 10.0 mi NNE 4.6 mph - N/A   Scattered Clouds
12:53 PM 52.0 °F - 42.1 °F 69% 30.20 in 10.0 mi NE 6.9 mph - N/A   Partly Cloudy
1:53 PM 55.0 °F - 41.0 °F 59% 30.15 in 10.0 mi NE 4.6 mph - N/A   Partly Cloudy
2:53 PM 57.0 °F - 42.1 °F 57% 30.12 in 10.0 mi North 5.8 mph - N/A   Scattered Clouds
3:53 PM 55.0 °F - 41.0 °F 59% 30.11 in 10.0 mi North 5.8 mph - N/A   Scattered Clouds
4:53 PM 55.0 °F - 41.0 °F 59% 30.12 in 10.0 mi NW 4.6 mph - N/A   Partly Cloudy
5:53 PM 54.0 °F - 41.0 °F 62% 30.13 in 10.0 mi Calm Calm - N/A   Partly Cloudy
6:53 PM 53.1 °F - 39.9 °F 61% 30.13 in 10.0 mi Calm Calm - N/A   Mostly Cloudy
7:53 PM 51.1 °F - 41.0 °F 68% 30.13 in 10.0 mi NNE 3.5 mph - N/A   Partly Cloudy
8:53 PM 48.9 °F - 41.0 °F 74% 30.12 in 10.0 mi NNW 4.6 mph - N/A   Scattered Clouds
9:53 PM 48.9 °F - 42.1 °F 77% 30.14 in 10.0 mi NW 4.6 mph - N/A   Overcast
10:53 PM 48.0 °F - 42.1 °F 80% 30.15 in 10.0 mi Calm Calm - N/A   Mostly Cloudy
11:53 PM 48.0 °F - 42.1 °F 80% 30.12 in 10.0 mi SE 5.8 mph - 0.00 in   Mostly Cloudy